#timestamp,LO_Frequency,Hit,StdDev 
1542495615.4,286046999.5,N
1542495635.3,286046997.5,N
1542495655.1,286046997.7,N
1542495675.9,286046999.6,N
1542495695.7,286046997.7,N
1542495715.5,286046997.0,N
1542495735.4,286046999.6,N
1542495755.2,286046998.5,N
1542495775.1,286047000.7,N
1542495776.0,286047000.7,N
1542495795.8,286047000.6,N
1542495815.6,286046998.2,N
1542495835.5,286046999.3,N
1542495855.3,286046998.3,N
1542495875.1,286046998.4,N
1542495895.4,286046999.2,N
1542495915.2,286046996.6,N
1542495935.0,286046998.9,N
1542495935.9,286046998.9,N
1542495955.8,286047001.1,N
1542495975.6,286046998.3,N
1542495995.4,286046999.0,N
1542496015.3,286046998.2,N
1542496035.1,286046998.5,N
1542496055.9,286046998.5,N
1542496075.7,286046998.3,N
1542496095.5,286047000.8,N
1542496115.4,286047000.4,N
1542496135.2,286047002.0,N
1542496155.1,286046999.8,N
1542496156.0,286046999.8,N
1542496175.8,286047002.6,N
1542496195.6,286047002.7,N
1542496215.5,286047002.2,N
1542496235.3,286047002.5,N
1542496255.2,286047000.8,N
1542496275.9,286047000.8,N
1542496295.7,286047000.4,N
1542496315.6,286047001.0,N
1542496335.4,286047000.5,N
1542496355.2,286046999.8,N
1542496375.1,286047002.2,N
1542496376.0,286047002.2,N
1542496395.8,286047002.0,N
1542496415.7,286047002.6,N
1542496435.5,286047000.0,N
1542496455.3,286046999.7,N
1542496475.2,286047002.3,N
1542496495.0,286046999.9,N
1542496495.9,286046999.9,N
1542496515.8,286047001.5,N
1542496535.6,286047001.9,N
1542496555.4,286046999.7,N
1542496575.3,286046999.8,N
1542496595.1,286047000.2,N
1542496615.8,286047001.5,N
1542496635.7,286046999.8,N
1542496655.5,286047002.2,N
1542496675.4,286047001.7,N
1542496695.2,286047002.6,N
1542496715.0,286047000.9,N
1542496715.9,286047000.9,N
1542496735.8,286047000.6,N
1542496755.6,286047002.4,N
1542496775.4,286047000.0,N
1542496795.3,286047000.4,N
1542496815.1,286047002.7,N
1542496835.9,286047002.0,N
1542496855.7,286046999.9,N
1542496875.5,286047002.0,N
1542496895.4,286047002.8,N
1542496915.2,286047000.2,N
1542496935.0,286047002.1,N
1542496935.9,286047002.1,N
1542496955.8,286047002.3,N
1542496975.6,286047002.1,N
1542496995.4,286047002.6,N
1542497015.3,286047002.0,N
1542497035.1,286047002.5,N
1542497055.9,286047001.5,N
1542497075.7,286047001.4,N
1542497095.5,286047003.8,Y
1542497115.4,286046999.8,P
1542497135.2,286047002.8,P
1542497155.1,286047002.2,N
1542497156.0,286047002.2,N
1542497175.8,286047000.1,N
1542497195.6,286047002.4,N
1542497215.5,286047002.4,N
1542497235.3,286047000.1,N
1542497255.2,286047001.6,N
1542497275.9,286047002.8,N
1542497295.7,286047000.2,N
1542497315.6,286046999.8,N
1542497335.4,286047000.5,N
1542497355.3,286047000.8,N
1542497375.1,286047001.0,N
1542497376.0,286047001.0,N
1542497395.8,286046998.2,N
1542497415.7,286046999.4,N
1542497435.5,286046999.0,N
1542497455.3,286047000.7,N
1542497475.2,286046998.5,N
1542497495.0,286047000.5,N
1542497495.9,286047000.5,N
1542497515.8,286047001.1,N
1542497535.6,286046998.1,N
1542497555.4,286046998.1,N
1542497575.3,286046998.6,N
1542497595.1,286046998.2,N
1542497596.0,286046998.2,N
1542497615.8,286047000.8,N
1542497635.7,286046999.9,N
1542497655.5,286047000.1,N
1542497675.4,286047000.6,N
1542497695.2,286047000.1,N
1542497715.0,286046999.9,N
1542497715.9,286046999.9,N
1542497735.8,286047000.3,N
1542497755.6,286047000.2,N
1542497775.4,286047000.8,N
1542497795.3,286046998.7,N
1542497815.1,286046998.5,N
1542497835.9,286047000.2,N
1542497855.7,286047000.4,N
1542497875.5,286047000.0,N
1542497895.4,286047000.5,N
1542497915.2,286047002.6,N
1542497935.0,286047001.0,N
1542497936.0,286047001.0,N
1542497955.8,286046998.9,N
1542497975.6,286047001.1,N
1542497995.5,286047002.7,N
1542498015.3,286046999.8,N
1542498035.1,286047000.2,N
1542498055.9,286047002.8,N
1542498075.7,286046999.7,N
1542498095.6,286047000.1,N
1542498115.4,286047000.8,N
1542498135.2,286047001.1,N
1542498155.1,286046998.1,N
1542498156.0,286046998.1,N
1542498175.8,286047000.9,N
1542498195.6,286047000.5,N
1542498215.5,286047000.1,N
1542498235.3,286047002.3,N
1542498255.2,286047000.6,N
1542498275.9,286047000.4,N
1542498295.7,286047000.7,N
1542498315.6,286046998.6,N
1542498335.4,286046998.2,N
1542498355.2,286046998.3,N
1542498375.1,286047001.0,N
1542498376.0,286047001.0,N
1542498395.8,286047000.5,N
1542498415.7,286047000.6,N
1542498435.5,286047000.0,N
1542498455.3,286047002.8,N
1542498475.2,286046999.7,N
1542498495.9,286047000.7,N
1542498515.7,286047001.0,N
1542498535.6,286046999.5,N
1542498555.4,286046996.8,N
1542498575.3,286046996.5,N
1542498595.1,286046998.9,N
1542498596.0,286046998.9,N
1542498615.8,286046998.3,N
1542498635.7,286046998.4,N
1542498655.5,286046998.5,N
1542498675.3,286046997.1,N
1542498695.2,286046996.8,N
1542498715.0,286046996.8,N
1542498715.9,286046996.8,N
1542498735.8,286046997.5,N
1542498755.6,286046997.0,N
1542498775.4,286046999.5,N
1542498795.3,286046999.5,N
1542498815.1,286046999.2,N
1542498835.8,286046999.6,N
1542498855.7,286046997.1,N
1542498875.5,286046997.5,N
1542498895.4,286046995.5,N
1542498915.2,286046996.3,N
1542498935.0,286046993.8,Y
1542498935.9,286046993.8,P
1542498955.8,286046997.2,N
1542498975.6,286046996.5,N
1542498995.5,286046998.7,N
1542499015.3,286046998.7,N
1542499035.1,286046998.6,N
1542499055.9,286046998.7,N
1542499075.7,286046999.1,N
1542499095.5,286046998.8,N
1542499115.4,286046999.3,N
1542499135.2,286046998.6,N
1542499155.0,286046999.3,N
1542499155.9,286046999.3,N
1542499175.8,286046999.0,N
1542499195.6,286046998.3,N
